Weather in Hamburg

Germany     53°33′09″N   9°57′58″E
temp.,
°C
wind,
m/s
gust,
m/s
humid.,
%
clouds,
%
prec.,
mm/h
press.,
hPa
HPBL,
m
23 april, fri
fri2323:00+4wnw411875 0.0 1024675
02:00+3wnw411915 0.0 1024601
05:00+3wnw412905 0.0 1024579
08:00+5wnw511725 0.0 1025812
11:00+10nw57495 0.0 10261217
14:00+12nw67435 0.0 10261691
17:00+11wnw68495 0.0 10261516
20:00+7wnw5869100 0.0 1027712
24 april, sat
sat2423:00+4wnw31088100 0.0 1028402
02:00+2w2996100 0.0 1027217
05:00+1w2897100 0.0 1026186
08:00+5wnw388299 0.0 1026500
11:00+9nw4652100 0.0 10261267
14:00+12nw45405 0.0 10251834
17:00+13nw453979 0.0 10242072
20:00+8nnw246297 0.0 1025289
25 april, sun
sun2523:00+5ene226729 0.0 102742
02:00+2ene117214 0.0 102710
05:00+2se116298 0.0 102732
08:00+5s125287 0.0 1027221
11:00+10ssw113914 0.0 10261560
14:00+13w123560 0.0 10252125
17:00+12nw433885 0.0 10242032
20:00+7nw377042 0.0 1024394
26 april, mon
mon2623:00+3n11895 0.0 102410
02:00+1ese118312 0.0 102413
05:00+3ese1270100 0.0 102387
08:00+4ese2360100 0.0 1023242
11:00+9sse114890 0.0 10221165
14:00+11e214487 0.2 10201884
17:00+11e224593 0.1 10191643
20:00+8ene245928 0.2 1018105
27 april, tue
tue2723:00+3e37665 0.0 1018144
02:00+1ese277254 0.0 1017137
05:000ese237796 0.0 101666
08:00+4ese3564100 0.0 1015190
11:00+9ese4545100 0.0 10141011
14:00+12ese4534100 0.0 10121991
17:00+12e453896 0.0 10112093
20:00+9ene4859100 0.0 1010388